Location: L�beck
(53.8752°N, 10.6787°E)
Time: 18:27:20
(UTC+01:00)

ISS - Pass Details

Date: 13 January 2018
Orbit: 402 x 407 km, 51.6° (Epoch: 19 January)

Event Time Altitude Azimuth Distance (km) Brightness Sun altitude
Exits shadow 05:33:55 17° 152° (SSE) 1,131 -1.3 -24.8°
Drops below altitude 10° 05:34:53 10° 141° (SE) 1,464 -0.5 -24.6°
Sets 05:37:07 0° 131° (SE) 2,323 0.8 -24.3°
